CW9193 Weather Reports


time (UTC)temp
F
wind
direction
speed
knots
gust
knots
rain 1hr
in
rain 24hr
in
rain mn
in
humidity
%
barometer
mb
20260509161529 50 239 0.0 0.0 0.00 0.00 0.00 68 996.4
20260509160122 49 240 0.0 0.0 0.00 0.00 0.00 69 996.1
20260509154522 49 241 0.0 0.0 0.00 0.00 0.00 70 996.1
20260509153039 49 243 0.0 0.0 0.00 0.00 0.00 68 996.1
20260509151520 50 236 0.0 0.0 0.00 0.00 0.00 68 996.1
20260509150120 49 243 0.0 0.0 0.00 0.00 0.00 68 996.1
20260509144517 50 234 0.0 0.0 0.00 0.00 0.00 70 995.9
20260509143015 48 233 0.0 0.0 0.00 0.00 0.00 74 995.9
20260509141513 46 228 0.0 0.0 0.00 0.00 0.00 84 995.9
20260509140108 42 228 0.0 0.0 0.00 0.00 0.00 86 996.2
20260509134504 41 226 0.0 0.0 0.00 0.00 0.00 86 995.9
20260509133002 42 232 0.0 0.0 0.00 0.00 0.00 84 996.2
20260509131559 42 230 0.0 0.0 0.00 0.00 0.00 83 995.8
20260509130057 43 240 0.0 0.0 0.00 0.00 0.00 84 995.9
20260509124557 42 297 0.0 0.0 0.00 0.00 0.00 85 996.3
20260509123118 41 297 0.0 0.0 0.00 0.00 0.00 85 996.9
20260509121600 41 297 0.0 0.0 0.00 0.00 0.00 85 996.6
20260509120055 41 297 0.0 0.0 0.00 0.00 0.00 85 996.2
20260509114554 40 297 0.0 0.0 0.00 0.00 0.00 85 996.0
20260509113055 40 297 0.0 0.0 0.00 0.00 0.00 84 996.1
20260509111553 40 297 0.0 0.0 0.00 0.00 0.00 84 996.2
20260509110053 40 297 0.0 0.0 0.00 0.00 0.00 84 996.3
20260509104552 40 297 0.0 0.0 0.00 0.00 0.00 84 996.4
20260509103100 40 298 0.0 0.0 0.00 0.00 0.00 83 996.4
20260509101551 41 301 0.0 0.0 0.00 0.00 0.00 82 996.5
20260509100053 41 301 0.0 0.0 0.00 0.00 0.00 82 997.1
20260509094549 41 301 0.0 0.0 0.00 0.00 0.00 82 997.2
20260509093048 41 303 0.0 0.0 0.00 0.00 0.00 82 997.3
20260509091547 40 314 0.0 0.0 0.00 0.00 0.00 84 997.5
20260509090053 40 287 0.0 0.0 0.00 0.00 0.00 84 997.7
20260509084543 40 301 0.0 0.0 0.00 0.00 0.00 83 998.1
20260509083043 40 278 0.0 0.0 0.00 0.00 0.00 82 998.2
20260509081541 39 266 0.0 0.0 0.00 0.00 0.00 83 998.4
20260509080042 39 258 0.0 0.0 0.00 0.00 0.00 83 998.6
20260509074544 40 259 0.0 0.0 0.00 0.00 0.00 83 999.0
20260509073037 40 259 0.0 0.0 0.00 0.00 0.00 82 999.2
20260509071534 40 257 0.0 0.0 0.00 0.00 0.00 80 999.5
20260509070038 41 289 0.0 0.0 0.00 0.00 0.00 79 999.8
20260509064535 41 299 0.0 0.0 0.00 0.00 0.00 77 1000.0
20260509063031 42 299 0.0 0.0 0.00 0.00 0.00 76 1000.5
20260509061528 43 300 0.0 0.0 0.00 0.00 0.00 75 1000.8
20260509060033 43 315 0.0 0.0 0.00 0.00 0.00 73 1001.0
20260509054525 43 321 0.0 0.0 0.00 0.00 0.00 76 1001.2
20260509053024 41 326 0.0 0.0 0.00 0.00 0.00 72 1001.7
20260509051523 41 345 0.0 0.0 0.00 0.00 0.00 72 1001.7
20260509050040 40 281 0.0 0.0 0.00 0.00 0.00 80 1001.8
20260509044522 40 280 0.0 0.0 0.00 0.00 0.00 84 1001.9
20260509043019 39 274 0.0 0.0 0.00 0.00 0.00 81 1002.0
20260509041518 37 272 0.0 0.0 0.00 0.00 0.00 73 1002.3
20260509040016 37 272 0.0 0.0 0.00 0.00 0.00 69 1002.6
20260509034515 37 272 0.0 0.0 0.00 0.00 0.00 67 1002.7
20260509033013 37 271 0.0 0.0 0.00 0.00 0.00 67 1003.0
20260509031523 37 271 0.0 0.0 0.00 0.00 0.00 67 1003.4
20260509030011 37 272 0.0 0.0 0.00 0.00 0.00 67 1003.6
20260509024513 37 271 0.0 0.0 0.00 0.00 0.00 68 1003.6
20260509023017 37 272 0.0 0.0 0.00 0.00 0.00 68 1003.7
20260509021509 37 284 0.0 0.0 0.00 0.00 0.00 71 1003.7
20260509020006 38 284 0.0 0.0 0.00 0.00 0.00 70 1003.8
20260509014504 39 284 0.0 0.0 0.00 0.00 0.00 68 1003.8
20260509013111 40 284 0.0 0.0 0.00 0.00 0.00 66 1003.8
20260509011557 41 284 0.0 0.0 0.00 0.00 0.00 64 1003.7
20260509010054 43 284 0.0 0.0 0.00 0.00 0.00 62 1003.6
20260509004555 43 285 0.0 0.0 0.00 0.00 0.00 58 1003.6
20260509003055 44 285 0.0 0.0 0.00 0.00 0.00 56 1003.6
20260509001554 45 285 0.0 0.0 0.00 0.00 0.00 53 1003.7
20260509000104 45 285 0.0 0.0 0.00 0.00 0.00 51 1003.7
20260508234556 45 285 0.0 0.0 0.00 0.00 0.00 49 1003.8
20260508233052 45 285 0.0 0.0 0.00 0.00 0.00 46 1003.9
20260508231552 46 285 0.0 0.0 0.00 0.00 0.00 47 1003.8
20260508230054 47 285 0.0 0.0 0.00 0.00 0.00 47 1003.9
20260508224554 48 285 0.0 0.0 0.00 0.00 0.00 48 1004.1
20260508223049 48 286 0.0 0.0 0.00 0.00 0.00 52 1004.1
20260508221547 47 292 0.0 0.0 0.00 0.00 0.00 54 1004.3
20260508220046 47 310 0.0 0.0 0.00 0.00 0.00 57 1004.4
20260508214556 46 239 0.0 0.0 0.00 0.00 0.00 53 1004.5
20260508213058 47 232 0.0 0.0 0.00 0.00 0.00 47 1004.5
20260508211545 49 237 0.0 0.0 0.00 0.00 0.00 50 1004.5
20260508210047 48 284 0.0 0.0 0.00 0.00 0.00 56 1004.8
20260508204543 47 264 0.0 0.0 0.00 0.00 0.00 61 1004.7
20260508203049 45 258 0.0 0.0 0.00 0.00 0.00 63 1005.0
20260508201551 46 243 0.0 0.0 0.00 0.00 0.00 61 1005.1
20260508200042 46 222 0.0 0.0 0.00 0.00 0.00 63 1005.4
20260508194536 47 228 0.0 0.0 0.00 0.00 0.00 64 1005.6
20260508193034 48 245 0.0 0.0 0.00 0.00 0.00 65 1005.7
20260508191534 45 249 0.0 0.0 0.00 0.00 0.00 70 1005.9
20260508190040 44 245 0.0 0.0 0.00 0.00 0.00 74 1006.0
20260508184534 43 236 0.0 0.0 0.00 0.00 0.00 73 1006.1
20260508183036 44 245 0.0 0.0 0.00 0.00 0.00 70 1006.0
20260508181549 44 247 0.0 0.0 0.00 0.00 0.00 69 1006.1
20260508180029 44 258 0.0 0.0 0.00 0.00 0.00 69 1006.3
20260508174530 44 243 0.0 0.0 0.00 0.00 0.00 71 1006.2
20260508173026 45 237 0.0 0.0 0.00 0.00 0.00 71 1006.5
20260508171526 48 206 0.0 0.0 0.00 0.00 0.00 67 1006.6
20260508170024 49 228 0.0 0.0 0.00 0.00 0.00 61 1006.7
20260508164534 49 223 0.0 0.0 0.00 0.00 0.00 62 1006.8
20260508163020 49 247 0.0 0.0 0.00 0.00 0.00 61 1007.0